When you browse on this site, cookies collect data to enhance your experience and personalize the content and advertising you see.
Visit our Privacy Policy to learn more. By continuing to use the site, you agree to this use of cookies and data.
  • In Deutschland
  • Länderverzeichnis
  • Für 7 Tage
  • Wassertemperatur
  • Wetterkarte
  • Widgets
  • user-avatar
    Anmelden

    Stündliche Wetter Verhnyaya Alabashka

    Heute, 22 Februar, Samstag

    Zeit Temperatur Niederschläge Wind Luftdruck Luftfeuchtigkeit
    00:00 -6°C° 0 mm 2 m/S 748 mmHg 94%
    01:00 -7°C° 0 mm 2 m/S 748 mmHg 94%
    02:00 -7°C° 0 mm 2 m/S 748 mmHg 94%
    03:00 -8°C° 0 mm 2 m/S 749 mmHg 93%
    04:00 -8°C° 0 mm 2 m/S 749 mmHg 96%
    05:00 -8°C° 0 mm 2 m/S 749 mmHg 95%
    06:00 -9°C° 0 mm 2 m/S 749 mmHg 95%
    07:00 -8°C° 0 mm 1 m/S 749 mmHg 95%
    08:00 -7°C° 0 mm 1 m/S 750 mmHg 94%
    09:00 -4°C° 0 mm 1 m/S 750 mmHg 92%
    10:00 -2°C° 0 mm 1 m/S 751 mmHg 92%
    11:00 -1°C° 0 mm 1 m/S 751 mmHg 91%
    12:00 -2°C° 0 mm 2 m/S 751 mmHg 91%
    13:00 -2°C° 0 mm 2 m/S 751 mmHg 91%
    14:00 -2°C° 0 mm 2 m/S 751 mmHg 90%
    15:00 -2°C° 0 mm 2 m/S 751 mmHg 89%
    16:00 -2°C° 0 mm 2 m/S 751 mmHg 88%
    17:00 -3°C° 0 mm 2 m/S 751 mmHg 88%
    18:00 -3°C° 0 mm 2 m/S 751 mmHg 88%
    19:00 -4°C° 0 mm 2 m/S 751 mmHg 88%
    20:00 -4°C° 0 mm 2 m/S 751 mmHg 89%
    21:00 -5°C° 0 mm 2 m/S 751 mmHg 90%
    22:00 -6°C° 0 mm 2 m/S 751 mmHg 91%
    23:00 -6°C° 0 mm 2 m/S 751 mmHg 92%

    Morgen, 23 Februar, Sonntag

    Zeit Temperatur Niederschläge Wind Luftdruck Luftfeuchtigkeit
    00:00 -6°C° 0 mm 2 m/S 751 mmHg 92%
    01:00 -6°C° 0 mm 2 m/S 751 mmHg 93%
    02:00 -6°C° 0 mm 2 m/S 751 mmHg 93%
    03:00 -8°C° 0 mm 3 m/S 750 mmHg 94%
    04:00 -8°C° 0 mm 3 m/S 750 mmHg 94%
    05:00 -8°C° 0 mm 3 m/S 750 mmHg 94%
    06:00 -9°C° 0 mm 3 m/S 750 mmHg 95%
    07:00 -9°C° 0 mm 3 m/S 750 mmHg 95%
    08:00 -7°C° 0 mm 3 m/S 749 mmHg 93%
    09:00 -6°C° 0 mm 3 m/S 749 mmHg 92%
    10:00 -5°C° 0 mm 3 m/S 749 mmHg 91%
    11:00 -4°C° 0 mm 3 m/S 749 mmHg 89%
    12:00 -3°C° 0 mm 4 m/S 748 mmHg 87%
    13:00 -2°C° 0 mm 4 m/S 748 mmHg 84%
    14:00 -2°C° 0 mm 4 m/S 748 mmHg 84%
    15:00 -2°C° 0 mm 4 m/S 747 mmHg 84%
    16:00 -3°C° 0 mm 4 m/S 747 mmHg 84%
    17:00 -2°C° 0 mm 3 m/S 747 mmHg 85%
    18:00 -4°C° 0 mm 3 m/S 746 mmHg 87%
    19:00 -5°C° 0 mm 3 m/S 746 mmHg 89%
    20:00 -6°C° 0 mm 3 m/S 745 mmHg 89%
    21:00 -7°C° 0 mm 4 m/S 745 mmHg 89%
    22:00 -7°C° 0 mm 4 m/S 745 mmHg 88%
    23:00 -7°C° 0 mm 4 m/S 744 mmHg 89%

    übermorgen, 24 Februar, Montag

    Zeit Temperatur Niederschläge Wind Luftdruck Luftfeuchtigkeit
    00:00 -7°C° 0 mm 4 m/S 744 mmHg 89%
    01:00 -8°C° 0 mm 4 m/S 743 mmHg 90%
    02:00 -8°C° 0 mm 4 m/S 742 mmHg 89%
    03:00 -9°C° 0 mm 4 m/S 742 mmHg 89%
    04:00 -10°C° 0 mm 4 m/S 742 mmHg 88%
    05:00 -10°C° 0 mm 4 m/S 741 mmHg 86%
    06:00 -9°C° 0 mm 4 m/S 740 mmHg 85%
    07:00 -9°C° 0 mm 4 m/S 740 mmHg 83%
    08:00 -10°C° 0 mm 5 m/S 739 mmHg 83%
    09:00 -8°C° 0 mm 5 m/S 739 mmHg 83%
    10:00 -8°C° 0 mm 5 m/S 738 mmHg 84%
    11:00 -7°C° 0 mm 5 m/S 738 mmHg 84%
    12:00 -6°C° 0 mm 6 m/S 738 mmHg 84%
    13:00 -6°C° 0 mm 6 m/S 737 mmHg 84%
    14:00 -6°C° 0.1 mm 6 m/S 737 mmHg 87%
    15:00 -6°C° 0.1 mm 6 m/S 736 mmHg 89%
    16:00 -6°C° 0.1 mm 6 m/S 736 mmHg 92%
    17:00 -8°C° 0.1 mm 6 m/S 736 mmHg 92%
    18:00 -8°C° 0.1 mm 6 m/S 735 mmHg 92%
    19:00 -7°C° 0.1 mm 5 m/S 735 mmHg 91%
    20:00 -7°C° 0.2 mm 5 m/S 735 mmHg 92%
    21:00 -7°C° 0.2 mm 5 m/S 735 mmHg 92%
    22:00 -7°C° 0.2 mm 5 m/S 735 mmHg 92%
    23:00 -7°C° 0 mm 4 m/S 735 mmHg 91%

    25 Februar, Dienstag

    Zeit Temperatur Niederschläge Wind Luftdruck Luftfeuchtigkeit
    00:00 -5°C° 0 mm 4 m/S 735 mmHg 90%
    01:00 -5°C° 0 mm 4 m/S 735 mmHg 88%
    02:00 -7°C° 0 mm 4 m/S 736 mmHg 90%
    03:00 -6°C° 0 mm 3 m/S 736 mmHg 91%
    04:00 -7°C° 0 mm 3 m/S 736 mmHg 93%
    05:00 -7°C° 0 mm 3 m/S 737 mmHg 93%
    06:00 -6°C° 0 mm 2 m/S 737 mmHg 93%
    07:00 -6°C° 0 mm 2 m/S 737 mmHg 93%
    08:00 -5°C° 0 mm 2 m/S 737 mmHg 92%
    09:00 -5°C° 0 mm 3 m/S 737 mmHg 90%
    10:00 -4°C° 0 mm 3 m/S 738 mmHg 88%
    11:00 -2°C° 0 mm 3 m/S 738 mmHg 88%
    12:00 -2°C° 0 mm 3 m/S 738 mmHg 87%
    13:00 -1°C° 0 mm 3 m/S 738 mmHg 86%
    14:00 -1°C° 0 mm 3 m/S 737 mmHg 87%
    15:00 -1°C° 0 mm 3 m/S 737 mmHg 87%
    16:00 -2°C° 0 mm 4 m/S 737 mmHg 88%
    17:00 -3°C° 0 mm 4 m/S 737 mmHg 90%
    18:00 -4°C° 0 mm 4 m/S 737 mmHg 91%
    19:00 -4°C° 0 mm 4 m/S 737 mmHg 93%
    20:00 -4°C° 0 mm 4 m/S 736 mmHg 93%
    21:00 -4°C° 0 mm 3 m/S 736 mmHg 93%
    22:00 -4°C° 0 mm 3 m/S 736 mmHg 93%
    23:00 -4°C° 0 mm 3 m/S 736 mmHg 93%

    26 Februar, Mittwoch

    Zeit Temperatur Niederschläge Wind Luftdruck Luftfeuchtigkeit
    00:00 -3°C° 0 mm 4 m/S 735 mmHg 93%
    01:00 -3°C° 0 mm 4 m/S 735 mmHg 93%
    02:00 -3°C° 0 mm 4 m/S 734 mmHg 94%
    03:00 -2°C° 0 mm 4 m/S 734 mmHg 95%
    04:00 -2°C° 0 mm 4 m/S 734 mmHg 95%
    05:00 -2°C° 0.1 mm 4 m/S 733 mmHg 96%
    06:00 -2°C° 0.1 mm 4 m/S 733 mmHg 96%
    07:00 -2°C° 0.1 mm 4 m/S 732 mmHg 96%
    08:00 -2°C° 0.2 mm 4 m/S 732 mmHg 96%
    09:00 -2°C° 0.2 mm 4 m/S 731 mmHg 97%
    10:00 -2°C° 0.2 mm 4 m/S 731 mmHg 97%
    11:00 -2°C° 1 mm 4 m/S 730 mmHg 97%
    12:00 -2°C° 1 mm 4 m/S 730 mmHg 97%
    13:00 -2°C° 1 mm 4 m/S 730 mmHg 97%
    14:00 -1°C° 1.5 mm 3 m/S 729 mmHg 97%
    15:00 -2°C° 1.5 mm 3 m/S 729 mmHg 97%
    16:00 -2°C° 1.5 mm 2 m/S 729 mmHg 97%
    17:00 -2°C° 1.2 mm 2 m/S 729 mmHg 97%
    18:00 -1°C° 1.2 mm 1 m/S 729 mmHg 97%
    19:00 -1°C° 1.2 mm 1 m/S 729 mmHg 98%
    20:00 -1°C° 0.3 mm 1 m/S 730 mmHg 97%
    21:00 -1°C° 0.3 mm 1 m/S 730 mmHg 97%
    22:00 -3°C° 0.3 mm 2 m/S 730 mmHg 97%
    23:00 -2°C° 0 mm 3 m/S 731 mmHg 94%

    27 Februar, Donnerstag

    Zeit Temperatur Niederschläge Wind Luftdruck Luftfeuchtigkeit
    00:00 -2°C° 0 mm 3 m/S 732 mmHg 92%
    01:00 -3°C° 0 mm 4 m/S 732 mmHg 89%
    02:00 -4°C° 0 mm 4 m/S 733 mmHg 89%
    03:00 -6°C° 0 mm 5 m/S 734 mmHg 89%
    04:00 -6°C° 0 mm 5 m/S 735 mmHg 89%
    05:00 -7°C° 0 mm 5 m/S 735 mmHg 89%
    06:00 -8°C° 0 mm 5 m/S 736 mmHg 89%
    07:00 -9°C° 0 mm 4 m/S 736 mmHg 89%
    08:00 -8°C° 0 mm 4 m/S 737 mmHg 86%
    09:00 -8°C° 0 mm 4 m/S 737 mmHg 83%
    10:00 -6°C° 0 mm 3 m/S 738 mmHg 80%
    11:00 -5°C° 0 mm 4 m/S 738 mmHg 82%
    12:00 -3°C° 0 mm 4 m/S 738 mmHg 84%
    13:00 -2°C° 0 mm 4 m/S 739 mmHg 86%
    14:00 -2°C° 0 mm 4 m/S 739 mmHg 86%
    15:00 -2°C° 0 mm 4 m/S 739 mmHg 85%
    16:00 -2°C° 0 mm 4 m/S 740 mmHg 85%
    17:00 -4°C° 0 mm 4 m/S 740 mmHg 87%
    18:00 -5°C° 0 mm 3 m/S 741 mmHg 89%
    19:00 -5°C° 0 mm 2 m/S 741 mmHg 91%
    20:00 -5°C° 0 mm 2 m/S 742 mmHg 92%
    21:00 -5°C° 0 mm 2 m/S 742 mmHg 93%
    22:00 -5°C° 0 mm 2 m/S 743 mmHg 93%
    23:00 -4°C° 0 mm 2 m/S 743 mmHg 93%
    Mehr zeigen